Time,TemperatureF,DewpointF,PressureIn,WindDirection,WindDirectionDegrees,WindSpeedMPH,WindSpeedGustMPH,Humidity,HourlyPrecipIn,Conditions,Clouds,dailyrainin,SoftwareType,DateUTC
2013-07-15 00:02:00,71.7,69.9,30.16,ENE,64,0.0,0.0,93,0.00,n/a,n/a,-99.99,Henriksen +1-Wire,2013-07-15 04:02:00,
2013-07-15 00:06:00,71.8,69.7,30.16,ENE,71,0.0,0.0,93,0.00,n/a,n/a,-99.99,Henriksen +1-Wire,2013-07-15 04:06:00,
2013-07-15 00:10:00,71.6,69.6,30.16,ENE,70,0.0,0.0,93,0.00,n/a,n/a,-99.99,Henriksen +1-Wire,2013-07-15 04:10:00,
2013-07-15 00:12:00,71.6,69.6,30.16,ENE,64,0.0,0.0,93,0.00,n/a,n/a,-99.99,Henriksen +1-Wire,2013-07-15 04:12:00,
2013-07-15 00:18:00,71.5,69.5,30.16,ESE,108,0.0,0.0,93,0.00,n/a,n/a,-99.99,Henriksen +1-Wire,2013-07-15 04:18:00,
2013-07-15 00:24:00,71.4,69.5,30.16,ENE,75,0.0,0.0,93,0.00,n/a,n/a,-99.99,Henriksen +1-Wire,2013-07-15 04:24:00,
2013-07-15 00:30:00,71.3,69.2,30.16,East,86,0.0,0.0,93,0.00,n/a,n/a,-99.99,Henriksen +1-Wire,2013-07-15 04:30:00,
2013-07-15 00:36:00,71.1,69.1,30.16,ENE,71,0.0,0.0,93,0.00,n/a,n/a,-99.99,Henriksen +1-Wire,2013-07-15 04:36:00,
2013-07-15 00:42:00,70.8,69.0,30.16,ENE,64,0.0,0.0,93,0.00,n/a,n/a,-99.99,Henriksen +1-Wire,2013-07-15 04:42:00,
2013-07-15 00:48:00,70.8,69.0,30.15,ENE,66,0.0,0.0,94,0.00,n/a,n/a,-99.99,Henriksen +1-Wire,2013-07-15 04:48:00,
2013-07-15 00:54:00,70.7,68.9,30.15,ENE,75,0.0,0.0,94,0.00,n/a,n/a,-99.99,Henriksen +1-Wire,2013-07-15 04:54:00,
2013-07-15 01:00:00,70.7,68.8,30.15,ENE,78,0.0,0.0,93,0.00,n/a,n/a,-99.99,Henriksen +1-Wire,2013-07-15 05:00:00,
2013-07-15 01:06:00,70.5,68.7,30.15,East,99,0.0,0.0,94,0.00,n/a,n/a,-99.99,Henriksen +1-Wire,2013-07-15 05:06:00,
2013-07-15 01:12:00,70.4,68.7,30.15,SSE,150,0.0,0.0,94,0.00,n/a,n/a,-99.99,Henriksen +1-Wire,2013-07-15 05:12:00,
2013-07-15 01:18:00,70.4,68.9,30.15,SE,145,0.0,0.0,94,0.00,n/a,n/a,-99.99,Henriksen +1-Wire,2013-07-15 05:18:00,
2013-07-15 01:24:00,70.4,68.8,30.15,ESE,105,0.0,0.0,94,0.00,n/a,n/a,-99.99,Henriksen +1-Wire,2013-07-15 05:24:00,
2013-07-15 01:30:00,70.4,69.0,30.15,ESE,109,0.0,0.0,95,0.00,n/a,n/a,-99.99,Henriksen +1-Wire,2013-07-15 05:30:00,
2013-07-15 01:36:00,70.3,68.8,30.15,ESE,110,0.0,0.0,95,0.00,n/a,n/a,-99.99,Henriksen +1-Wire,2013-07-15 05:36:00,
2013-07-15 01:42:00,70.2,68.7,30.15,ESE,106,0.0,0.0,95,0.00,n/a,n/a,-99.99,Henriksen +1-Wire,2013-07-15 05:42:00,
2013-07-15 01:48:00,70.0,68.5,30.15,East,84,0.0,0.0,95,0.00,n/a,n/a,-99.99,Henriksen +1-Wire,2013-07-15 05:48:00,
2013-07-15 01:54:00,70.0,68.4,30.15,ENE,59,0.0,0.0,94,0.00,n/a,n/a,-99.99,Henriksen +1-Wire,2013-07-15 05:54:00,
2013-07-15 02:00:00,69.9,68.3,30.15,ENE,64,0.0,0.0,94,0.00,n/a,n/a,-99.99,Henriksen +1-Wire,2013-07-15 06:00:00,
2013-07-15 02:06:00,69.8,68.2,30.14,East,79,0.0,0.0,94,0.00,n/a,n/a,-99.99,Henriksen +1-Wire,2013-07-15 06:06:00,
2013-07-15 02:12:00,69.7,68.2,30.15,ESE,106,0.0,0.0,94,0.00,n/a,n/a,-99.99,Henriksen +1-Wire,2013-07-15 06:12:00,
2013-07-15 02:18:00,69.7,68.1,30.15,East,100,0.0,0.0,94,0.00,n/a,n/a,-99.99,Henriksen +1-Wire,2013-07-15 06:18:00,
2013-07-15 02:24:00,69.6,68.1,30.14,East,93,0.0,0.0,94,0.00,n/a,n/a,-99.99,Henriksen +1-Wire,2013-07-15 06:24:00,
2013-07-15 02:30:00,69.5,67.9,30.14,East,84,0.0,0.0,94,0.00,n/a,n/a,-99.99,Henriksen +1-Wire,2013-07-15 06:30:00,
2013-07-15 02:36:00,69.4,67.9,30.14,ENE,66,0.0,0.0,94,0.00,n/a,n/a,-99.99,Henriksen +1-Wire,2013-07-15 06:36:00,
2013-07-15 02:42:00,69.3,67.8,30.14,ENE,64,0.0,0.0,95,0.00,n/a,n/a,-99.99,Henriksen +1-Wire,2013-07-15 06:42:00,
2013-07-15 02:48:00,69.2,67.7,30.14,ENE,66,0.0,0.0,94,0.00,n/a,n/a,-99.99,Henriksen +1-Wire,2013-07-15 06:48:00,
2013-07-15 02:54:00,69.1,67.7,30.14,ESE,111,0.0,0.0,95,0.00,n/a,n/a,-99.99,Henriksen +1-Wire,2013-07-15 06:54:00,
2013-07-15 03:00:00,69.2,67.9,30.14,SE,140,0.0,0.0,95,0.00,n/a,n/a,-99.99,Henriksen +1-Wire,2013-07-15 07:00:00,
2013-07-15 03:06:00,69.3,68.0,30.14,East,96,0.0,0.0,95,0.00,n/a,n/a,-99.99,Henriksen +1-Wire,2013-07-15 07:06:00,
2013-07-15 03:12:00,69.2,67.8,30.14,East,83,0.0,0.0,95,0.00,n/a,n/a,-99.99,Henriksen +1-Wire,2013-07-15 07:12:00,
2013-07-15 03:18:00,69.1,67.6,30.14,ENE,72,0.0,0.0,95,0.00,n/a,n/a,-99.99,Henriksen +1-Wire,2013-07-15 07:18:00,
2013-07-15 03:24:00,68.9,67.5,30.14,East,90,0.0,0.0,94,0.00,n/a,n/a,-99.99,Henriksen +1-Wire,2013-07-15 07:24:00,
2013-07-15 03:30:00,68.9,67.4,30.14,East,86,0.0,0.0,95,0.00,n/a,n/a,-99.99,Henriksen +1-Wire,2013-07-15 07:30:00,
2013-07-15 03:36:00,68.8,67.5,30.14,NE,44,0.0,0.0,95,0.00,n/a,n/a,-99.99,Henriksen +1-Wire,2013-07-15 07:36:00,
2013-07-15 03:42:00,68.7,67.3,30.14,NNE,25,0.0,0.0,95,0.00,n/a,n/a,-99.99,Henriksen +1-Wire,2013-07-15 07:42:00,
2013-07-15 03:48:00,68.7,67.3,30.14,SSE,158,0.0,0.0,95,0.00,n/a,n/a,-99.99,Henriksen +1-Wire,2013-07-15 07:48:00,
2013-07-15 03:54:00,68.8,67.4,30.14,SSE,154,0.0,0.0,95,0.00,n/a,n/a,-99.99,Henriksen +1-Wire,2013-07-15 07:54:00,
2013-07-15 04:00:00,68.7,67.3,30.14,SE,142,0.0,0.0,95,0.00,n/a,n/a,-99.99,Henriksen +1-Wire,2013-07-15 08:00:00,
2013-07-15 04:06:00,68.7,67.2,30.14,ENE,65,0.0,0.0,95,0.00,n/a,n/a,-99.99,Henriksen +1-Wire,2013-07-15 08:06:00,
2013-07-15 04:12:00,68.5,67.1,30.14,NE,45,0.0,0.0,95,0.00,n/a,n/a,-99.99,Henriksen +1-Wire,2013-07-15 08:12:00,
2013-07-15 04:18:00,68.4,67.0,30.14,NE,52,0.0,0.0,95,0.00,n/a,n/a,-99.99,Henriksen +1-Wire,2013-07-15 08:18:00,
2013-07-15 04:24:00,68.3,67.0,30.14,SSE,167,0.0,0.0,95,0.00,n/a,n/a,-99.99,Henriksen +1-Wire,2013-07-15 08:24:00,
2013-07-15 04:30:00,68.4,67.3,30.14,SSE,168,0.0,0.0,96,0.00,n/a,n/a,-99.99,Henriksen +1-Wire,2013-07-15 08:30:00,
2013-07-15 04:36:00,68.5,67.3,30.14,South,177,0.0,0.0,95,0.00,n/a,n/a,-99.99,Henriksen +1-Wire,2013-07-15 08:36:00,
2013-07-15 04:42:00,68.4,67.2,30.14,ENE,60,0.0,0.0,95,0.00,n/a,n/a,-99.99,Henriksen +1-Wire,2013-07-15 08:42:00,
2013-07-15 04:48:00,68.4,67.1,30.14,ENE,60,0.0,0.0,95,0.00,n/a,n/a,-99.99,Henriksen +1-Wire,2013-07-15 08:48:00,
2013-07-15 04:54:00,68.1,66.8,30.14,East,84,0.0,0.0,95,0.00,n/a,n/a,-99.99,Henriksen +1-Wire,2013-07-15 08:54:00,
2013-07-15 05:00:00,68.1,67.0,30.14,ESE,121,0.0,0.0,95,0.00,n/a,n/a,-99.99,Henriksen +1-Wire,2013-07-15 09:00:00,
2013-07-15 05:06:00,67.9,66.8,30.14,North,5,0.0,0.0,96,0.00,n/a,n/a,-99.99,Henriksen +1-Wire,2013-07-15 09:06:00,
2013-07-15 05:12:00,68.0,66.9,30.14,NE,56,0.0,0.0,96,0.00,n/a,n/a,-99.99,Henriksen +1-Wire,2013-07-15 09:12:00,
2013-07-15 05:18:00,67.9,66.7,30.14,ENE,70,0.0,0.0,95,0.00,n/a,n/a,-99.99,Henriksen +1-Wire,2013-07-15 09:18:00,
2013-07-15 05:24:00,67.9,66.6,30.14,ENE,61,0.0,0.0,95,0.00,n/a,n/a,-99.99,Henriksen +1-Wire,2013-07-15 09:24:00,
2013-07-15 05:30:00,67.9,66.7,30.14,NE,55,0.0,0.0,95,0.00,n/a,n/a,-99.99,Henriksen +1-Wire,2013-07-15 09:30:00,
2013-07-15 05:36:00,67.9,66.8,30.14,NNE,23,0.0,0.0,96,0.00,n/a,n/a,-99.99,Henriksen +1-Wire,2013-07-15 09:36:00,
2013-07-15 05:42:00,68.0,67.1,30.14,NNW,341,0.0,0.0,97,0.00,n/a,n/a,-99.99,Henriksen +1-Wire,2013-07-15 09:42:00,
2013-07-15 05:48:00,68.1,67.1,30.14,East,92,0.0,0.0,96,0.00,n/a,n/a,-99.99,Henriksen +1-Wire,2013-07-15 09:48:00,
2013-07-15 05:54:00,68.2,67.2,30.14,SSE,153,0.0,0.0,96,0.00,n/a,n/a,-99.99,Henriksen +1-Wire,2013-07-15 09:54:00,
2013-07-15 06:00:00,68.2,67.2,30.15,SSE,155,0.0,0.0,96,0.00,n/a,n/a,-99.99,Henriksen +1-Wire,2013-07-15 10:00:00,
2013-07-15 06:06:00,68.3,67.3,30.14,NE,45,0.0,0.0,96,0.00,n/a,n/a,-99.99,Henriksen +1-Wire,2013-07-15 10:06:00,
2013-07-15 06:12:00,68.2,67.3,30.14,NE,45,0.0,0.0,96,0.00,n/a,n/a,-99.99,Henriksen +1-Wire,2013-07-15 10:12:00,
2013-07-15 06:18:00,68.3,67.3,30.14,SSE,157,0.0,0.0,96,0.00,n/a,n/a,-99.99,Henriksen +1-Wire,2013-07-15 10:18:00,
2013-07-15 06:24:00,68.5,67.6,30.15,SSE,154,0.0,0.0,96,0.00,n/a,n/a,-99.99,Henriksen +1-Wire,2013-07-15 10:24:00,
2013-07-15 06:30:00,68.7,67.8,30.15,ESE,121,0.0,0.0,96,0.00,n/a,n/a,-99.99,Henriksen +1-Wire,2013-07-15 10:30:00,
2013-07-15 06:36:00,68.7,67.8,30.15,East,84,0.0,0.0,96,0.00,n/a,n/a,-99.99,Henriksen +1-Wire,2013-07-15 10:36:00,
2013-07-15 06:42:00,68.8,67.9,30.15,SSE,161,0.0,0.0,96,0.00,n/a,n/a,-99.99,Henriksen +1-Wire,2013-07-15 10:42:00,
2013-07-15 06:48:00,68.9,68.0,30.15,SSE,168,0.0,0.0,96,0.00,n/a,n/a,-99.99,Henriksen +1-Wire,2013-07-15 10:48:00,
2013-07-15 06:54:00,69.0,68.2,30.15,ESE,123,0.0,0.0,97,0.00,n/a,n/a,-99.99,Henriksen +1-Wire,2013-07-15 10:54:00,
2013-07-15 07:00:00,69.5,68.6,30.15,NE,50,0.0,0.0,96,0.00,n/a,n/a,-99.99,Henriksen +1-Wire,2013-07-15 11:00:00,
2013-07-15 07:06:00,69.8,68.9,30.15,East,100,0.0,0.0,97,0.00,n/a,n/a,-99.99,Henriksen +1-Wire,2013-07-15 11:06:00,
2013-07-15 07:12:00,70.0,69.1,30.15,ENE,77,0.0,0.0,97,0.00,n/a,n/a,-99.99,Henriksen +1-Wire,2013-07-15 11:12:00,
2013-07-15 07:18:00,70.5,69.7,30.15,ENE,71,0.0,0.0,97,0.00,n/a,n/a,-99.99,Henriksen +1-Wire,2013-07-15 11:18:00,
2013-07-15 07:24:00,70.8,69.8,30.15,East,87,0.0,0.0,96,0.00,n/a,n/a,-99.99,Henriksen +1-Wire,2013-07-15 11:24:00,
2013-07-15 07:30:00,71.0,70.0,30.15,East,82,0.0,0.0,96,0.00,n/a,n/a,-99.99,Henriksen +1-Wire,2013-07-15 11:30:00,
2013-07-15 07:36:00,71.5,70.4,30.15,East,83,0.0,0.0,96,0.00,n/a,n/a,-99.99,Henriksen +1-Wire,2013-07-15 11:36:00,
2013-07-15 07:42:00,72.2,70.7,30.15,NW,326,0.0,1.0,94,0.00,n/a,n/a,-99.99,Henriksen +1-Wire,2013-07-15 11:42:00,
2013-07-15 07:48:00,73.0,70.5,30.15,NNW,327,0.0,1.0,91,0.00,n/a,n/a,-99.99,Henriksen +1-Wire,2013-07-15 11:48:00,
2013-07-15 07:54:00,74.0,70.9,30.15,NW,321,0.0,0.0,89,0.00,n/a,n/a,-99.99,Henriksen +1-Wire,2013-07-15 11:54:00,
2013-07-15 08:00:00,74.7,70.9,30.15,NNW,328,0.0,0.0,87,0.00,n/a,n/a,-99.99,Henriksen +1-Wire,2013-07-15 12:00:00,
2013-07-15 08:06:00,75.5,71.0,30.15,NNW,333,2.2,3.5,85,0.00,n/a,n/a,-99.99,Henriksen +1-Wire,2013-07-15 12:06:00,
2013-07-15 08:12:00,75.9,71.1,30.15,NNW,333,2.3,3.7,84,0.00,n/a,n/a,-99.99,Henriksen +1-Wire,2013-07-15 12:12:00,
2013-07-15 08:18:00,76.2,70.9,30.15,NNW,333,3.7,5.8,83,0.00,n/a,n/a,-99.99,Henriksen +1-Wire,2013-07-15 12:18:00,
2013-07-15 08:24:00,76.7,70.9,30.15,NNW,330,3.6,5.8,81,0.00,n/a,n/a,-99.99,Henriksen +1-Wire,2013-07-15 12:24:00,
2013-07-15 08:30:00,77.3,71.1,30.15,NNW,329,3.5,5.5,80,0.00,n/a,n/a,-99.99,Henriksen +1-Wire,2013-07-15 12:30:00,
2013-07-15 08:36:00,77.7,71.0,30.15,NNW,327,3.0,5.5,79,0.00,n/a,n/a,-99.99,Henriksen +1-Wire,2013-07-15 12:36:00,
2013-07-15 08:42:00,78.0,71.2,30.15,NNW,340,2.1,5.3,79,0.00,n/a,n/a,-99.99,Henriksen +1-Wire,2013-07-15 12:42:00,
2013-07-15 08:48:00,78.3,71.2,30.14,NNW,330,2.1,4.5,78,0.00,n/a,n/a,-99.99,Henriksen +1-Wire,2013-07-15 12:48:00,
2013-07-15 08:54:00,78.8,71.6,30.15,NW,317,3.3,5.1,78,0.00,n/a,n/a,-99.99,Henriksen +1-Wire,2013-07-15 12:54:00,
2013-07-15 09:00:00,79.4,71.6,30.15,NW,316,2.4,5.1,76,0.00,n/a,n/a,-99.99,Henriksen +1-Wire,2013-07-15 13:00:00,
2013-07-15 09:06:00,79.6,71.6,30.15,NW,311,3.4,5.1,76,0.00,n/a,n/a,-99.99,Henriksen +1-Wire,2013-07-15 13:06:00,
2013-07-15 09:12:00,79.9,71.7,30.14,NW,326,3.1,6.2,75,0.00,n/a,n/a,-99.99,Henriksen +1-Wire,2013-07-15 13:12:00,
2013-07-15 09:18:00,80.4,71.8,30.14,NW,323,2.6,6.3,74,0.00,n/a,n/a,-99.99,Henriksen +1-Wire,2013-07-15 13:18:00,
2013-07-15 09:24:00,80.6,71.8,30.14,NW,323,2.5,5.8,74,0.00,n/a,n/a,-99.99,Henriksen +1-Wire,2013-07-15 13:24:00,
2013-07-15 09:30:00,81.0,72.3,30.14,NNW,327,0.9,5.1,74,0.00,n/a,n/a,-99.99,Henriksen +1-Wire,2013-07-15 13:30:00,
2013-07-15 09:36:00,81.6,72.9,30.14,NNW,330,1.6,2.9,74,0.00,n/a,n/a,-99.99,Henriksen +1-Wire,2013-07-15 13:36:00,
2013-07-15 09:42:00,81.7,72.6,30.14,NNW,329,2.7,5.0,73,0.00,n/a,n/a,-99.99,Henriksen +1-Wire,2013-07-15 13:42:00,
2013-07-15 09:48:00,81.7,72.2,30.14,NW,323,3.0,5.1,72,0.00,n/a,n/a,-99.99,Henriksen +1-Wire,2013-07-15 13:48:00,
2013-07-15 09:54:00,81.9,72.6,30.14,NW,320,3.2,5.8,73,0.00,n/a,n/a,-99.99,Henriksen +1-Wire,2013-07-15 13:54:00,
2013-07-15 10:00:00,82.1,72.4,30.14,NW,314,3.4,5.8,72,0.00,n/a,n/a,-99.99,Henriksen +1-Wire,2013-07-15 14:00:00,
2013-07-15 10:06:00,82.3,72.5,30.13,NNW,332,1.3,5.0,72,0.00,n/a,n/a,-99.99,Henriksen +1-Wire,2013-07-15 14:06:00,
2013-07-15 10:12:00,82.9,72.8,30.14,NW,325,2.9,5.1,71,0.00,n/a,n/a,-99.99,Henriksen +1-Wire,2013-07-15 14:12:00,
2013-07-15 10:18:00,82.9,72.7,30.13,WNW,297,1.3,5.1,70,0.00,n/a,n/a,-99.99,Henriksen +1-Wire,2013-07-15 14:18:00,
2013-07-15 10:24:00,83.3,73.2,30.14,ENE,66,1.8,3.5,71,0.00,n/a,n/a,-99.99,Henriksen +1-Wire,2013-07-15 14:24:00,
2013-07-15 10:30:00,83.6,73.0,30.13,NW,310,2.0,4.8,69,0.00,n/a,n/a,-99.99,Henriksen +1-Wire,2013-07-15 14:30:00,
2013-07-15 10:36:00,84.0,72.6,30.13,SSW,202,2.6,5.0,68,0.00,n/a,n/a,-99.99,Henriksen +1-Wire,2013-07-15 14:36:00,
2013-07-15 10:42:00,83.8,72.1,30.13,NNW,330,2.4,6.1,67,0.00,n/a,n/a,-99.99,Henriksen +1-Wire,2013-07-15 14:42:00,
2013-07-15 10:48:00,84.2,72.6,30.13,NW,320,1.7,5.5,67,0.00,n/a,n/a,-99.99,Henriksen +1-Wire,2013-07-15 14:48:00,
2013-07-15 10:54:00,84.6,71.9,30.13,WNW,292,2.6,5.4,65,0.00,n/a,n/a,-99.99,Henriksen +1-Wire,2013-07-15 14:54:00,
2013-07-15 11:00:00,84.8,71.8,30.13,NW,311,3.0,5.5,64,0.00,n/a,n/a,-99.99,Henriksen +1-Wire,2013-07-15 15:00:00,
2013-07-15 11:06:00,85.2,71.8,30.13,WNW,293,3.0,5.5,63,0.00,n/a,n/a,-99.99,Henriksen +1-Wire,2013-07-15 15:06:00,
2013-07-15 11:12:00,85.3,72.2,30.13,NW,317,3.3,6.7,64,0.00,n/a,n/a,-99.99,Henriksen +1-Wire,2013-07-15 15:12:00,
2013-07-15 11:18:00,85.2,71.7,30.13,NNW,327,2.3,7.5,63,0.00,n/a,n/a,-99.99,Henriksen +1-Wire,2013-07-15 15:18:00,
2013-07-15 11:28:00,85.9,72.4,30.13,NW,317,3.3,6.4,63,0.00,n/a,n/a,-99.99,Henriksen +1-Wire,2013-07-15 15:28:00,
2013-07-15 11:34:00,85.9,62.4,30.13,NW,312,3.1,6.4,44,0.00,n/a,n/a,-99.99,Henriksen +1-Wire,2013-07-15 15:34:00,
2013-07-15 11:40:00,86.3,77.1,30.13,WNW,301,2.8,5.0,73,0.00,n/a,n/a,-99.99,Henriksen +1-Wire,2013-07-15 15:40:00,
2013-07-15 11:46:00,86.5,73.4,30.13,WNW,297,3.1,8.3,64,0.00,n/a,n/a,-99.99,Henriksen +1-Wire,2013-07-15 15:46:00,
2013-07-15 11:52:00,86.5,72.3,30.12,NNW,343,2.4,8.3,62,0.00,n/a,n/a,-99.99,Henriksen +1-Wire,2013-07-15 15:52:00,
2013-07-15 11:58:00,86.7,71.7,30.12,NNW,339,3.3,5.8,60,0.00,n/a,n/a,-99.99,Henriksen +1-Wire,2013-07-15 15:58:00,
2013-07-15 12:04:00,86.6,72.9,30.12,SSW,200,2.2,6.8,63,0.00,n/a,n/a,-99.99,Henriksen +1-Wire,2013-07-15 16:04:00,
2013-07-15 12:10:00,86.5,71.6,30.12,NW,305,3.5,6.8,60,0.00,n/a,n/a,-99.99,Henriksen +1-Wire,2013-07-15 16:10:00,
2013-07-15 12:16:00,86.8,71.7,30.12,NW,321,3.8,6.7,60,0.00,n/a,n/a,-99.99,Henriksen +1-Wire,2013-07-15 16:16:00,
2013-07-15 12:24:00,87.3,71.8,30.12,NNW,335,2.2,6.4,59,0.00,n/a,n/a,-99.99,Henriksen +1-Wire,2013-07-15 16:24:00,
2013-07-15 12:30:00,87.6,71.0,30.12,NW,321,3.1,6.1,57,0.00,n/a,n/a,-99.99,Henriksen +1-Wire,2013-07-15 16:30:00,
2013-07-15 12:36:00,87.8,70.0,30.11,NW,319,4.1,8.2,54,0.00,n/a,n/a,-99.99,Henriksen +1-Wire,2013-07-15 16:36:00,
2013-07-15 12:42:00,88.2,54.2,30.11,WNW,299,3.3,8.2,30,0.00,n/a,n/a,-99.99,Henriksen +1-Wire,2013-07-15 16:42:00,
2013-07-15 12:48:00,87.9,73.3,30.11,NW,307,3.7,7.4,61,0.00,n/a,n/a,-99.99,Henriksen +1-Wire,2013-07-15 16:48:00,
2013-07-15 12:54:00,87.7,70.7,30.11,NW,324,3.2,9.4,56,0.00,n/a,n/a,-99.99,Henriksen +1-Wire,2013-07-15 16:54:00,
2013-07-15 13:00:00,88.0,70.4,30.11,NW,317,2.1,8.4,55,0.00,n/a,n/a,-99.99,Henriksen +1-Wire,2013-07-15 17:00:00,
2013-07-15 13:06:00,88.7,71.4,30.11,NW,318,3.1,5.8,56,0.00,n/a,n/a,-99.99,Henriksen +1-Wire,2013-07-15 17:06:00,
2013-07-15 13:12:00,88.4,70.4,30.10,NW,312,4.3,6.9,54,0.00,n/a,n/a,-99.99,Henriksen +1-Wire,2013-07-15 17:12:00,
2013-07-15 13:18:00,89.0,71.1,30.10,NW,323,2.2,8.6,54,0.00,n/a,n/a,-99.99,Henriksen +1-Wire,2013-07-15 17:18:00,
2013-07-15 13:24:00,89.4,71.6,30.10,NW,305,2.5,8.1,55,0.00,n/a,n/a,-99.99,Henriksen +1-Wire,2013-07-15 17:24:00,
2013-07-15 13:30:00,88.4,70.8,30.10,NW,313,2.8,8.0,55,0.00,n/a,n/a,-99.99,Henriksen +1-Wire,2013-07-15 17:30:00,
2013-07-15 13:36:00,88.2,70.9,30.10,NW,313,1.9,7.0,56,0.00,n/a,n/a,-99.99,Henriksen +1-Wire,2013-07-15 17:36:00,
2013-07-15 13:42:00,88.3,70.7,30.10,NW,307,4.3,8.0,55,0.00,n/a,n/a,-99.99,Henriksen +1-Wire,2013-07-15 17:42:00,
2013-07-15 13:48:00,88.4,70.1,30.10,WNW,296,3.0,8.0,54,0.00,n/a,n/a,-99.99,Henriksen +1-Wire,2013-07-15 17:48:00,
2013-07-15 13:54:00,88.0,69.3,30.10,NW,315,3.6,8.1,53,0.00,n/a,n/a,-99.99,Henriksen +1-Wire,2013-07-15 17:54:00,
2013-07-15 14:54:00,87.8,71.9,30.09,WNW,296,2.1,3.8,58,0.00,n/a,n/a,-99.99,Henriksen +1-Wire,2013-07-15 18:54:00,
2013-07-15 15:00:00,87.8,72.2,30.09,WNW,300,1.9,5.1,59,0.00,n/a,n/a,-99.99,Henriksen +1-Wire,2013-07-15 19:00:00,
2013-07-15 15:06:00,87.8,72.7,30.09,WSW,257,0.9,5.1,60,0.00,n/a,n/a,-99.99,Henriksen +1-Wire,2013-07-15 19:06:00,
2013-07-15 15:12:00,87.2,72.4,30.09,WNW,287,2.7,4.5,60,0.00,n/a,n/a,-99.99,Henriksen +1-Wire,2013-07-15 19:12:00,
2013-07-15 15:20:00,87.1,71.2,30.09,NW,308,1.5,5.5,58,0.00,n/a,n/a,-99.99,Henriksen +1-Wire,2013-07-15 19:20:00,
2013-07-15 15:26:00,87.3,71.7,30.09,WNW,288,1.6,5.5,59,0.00,n/a,n/a,-99.99,Henriksen +1-Wire,2013-07-15 19:26:00,
2013-07-15 15:32:00,87.3,72.7,30.09,SW,225,0.7,3.5,61,0.00,n/a,n/a,-99.99,Henriksen +1-Wire,2013-07-15 19:32:00,
2013-07-15 15:38:00,87.3,72.7,30.08,West,270,1.1,2.9,61,0.00,n/a,n/a,-99.99,Henriksen +1-Wire,2013-07-15 19:38:00,
2013-07-15 15:44:00,87.6,73.0,30.08,WNW,284,0.9,2.9,61,0.00,n/a,n/a,-99.99,Henriksen +1-Wire,2013-07-15 19:44:00,
2013-07-15 15:50:00,87.9,73.0,30.08,WNW,283,2.0,2.9,60,0.00,n/a,n/a,-99.99,Henriksen +1-Wire,2013-07-15 19:50:00,
2013-07-15 15:56:00,88.2,72.6,30.08,NW,318,1.4,3.8,59,0.00,n/a,n/a,-99.99,Henriksen +1-Wire,2013-07-15 19:56:00,
2013-07-15 16:02:00,88.6,72.0,30.08,NW,320,2.5,5.1,57,0.00,n/a,n/a,-99.99,Henriksen +1-Wire,2013-07-15 20:02:00,
2013-07-15 16:08:00,89.8,67.1,30.08,NW,325,1.4,5.1,46,0.00,n/a,n/a,-99.99,Henriksen +1-Wire,2013-07-15 20:08:00,
2013-07-15 16:14:00,90.4,65.4,30.07,SSW,194,1.9,5.0,43,0.00,n/a,n/a,-99.99,Henriksen +1-Wire,2013-07-15 20:14:00,
2013-07-15 16:20:00,90.8,70.1,30.07,WSW,257,2.6,5.0,50,0.00,n/a,n/a,-99.99,Henriksen +1-Wire,2013-07-15 20:20:00,
2013-07-15 16:26:00,90.8,71.4,30.07,WSW,257,2.1,4.8,52,0.00,n/a,n/a,-99.99,Henriksen +1-Wire,2013-07-15 20:26:00,
2013-07-15 16:32:00,91.3,70.2,30.07,South,177,1.8,5.4,49,0.00,n/a,n/a,-99.99,Henriksen +1-Wire,2013-07-15 20:32:00,
2013-07-15 16:38:00,91.0,70.1,30.07,NW,314,1.8,5.3,49,0.00,n/a,n/a,-99.99,Henriksen +1-Wire,2013-07-15 20:38:00,
2013-07-15 16:44:00,90.6,70.0,30.07,WNW,291,1.8,4.5,50,0.00,n/a,n/a,-99.99,Henriksen +1-Wire,2013-07-15 20:44:00,
2013-07-15 16:52:00,90.3,68.7,30.07,NW,321,2.5,4.9,48,0.00,n/a,n/a,-99.99,Henriksen +1-Wire,2013-07-15 20:52:00,
2013-07-15 16:58:00,90.5,68.9,30.07,NW,323,1.8,8.6,48,0.00,n/a,n/a,-99.99,Henriksen +1-Wire,2013-07-15 20:58:00,
2013-07-15 17:04:00,91.6,70.3,30.06,WSW,252,1.8,8.6,49,0.00,n/a,n/a,-99.99,Henriksen +1-Wire,2013-07-15 21:04:00,
2013-07-15 17:10:00,91.7,70.7,30.06,WSW,245,2.3,4.2,49,0.00,n/a,n/a,-99.99,Henriksen +1-Wire,2013-07-15 21:10:00,
2013-07-15 17:16:00,90.9,70.4,30.06,WNW,290,1.8,4.2,50,0.00,n/a,n/a,-99.99,Henriksen +1-Wire,2013-07-15 21:16:00,
2013-07-15 17:22:00,90.3,70.0,30.06,WNW,300,2.8,4.5,50,0.00,n/a,n/a,-99.99,Henriksen +1-Wire,2013-07-15 21:22:00,
2013-07-15 17:27:00,91.0,70.1,30.05,WNW,291,2.5,4.5,49,0.00,n/a,n/a,-99.99,Henriksen +1-Wire,2013-07-15 21:27:00,
2013-07-15 17:34:00,91.6,69.9,30.05,SSW,202,1.0,4.5,48,0.00,n/a,n/a,-99.99,Henriksen +1-Wire,2013-07-15 21:34:00,
2013-07-15 17:40:00,91.5,70.1,30.05,SSW,199,0.1,4.2,48,0.00,n/a,n/a,-99.99,Henriksen +1-Wire,2013-07-15 21:40:00,
2013-07-15 17:45:00,90.8,70.1,30.05,West,271,2.5,4.7,50,0.00,n/a,n/a,-99.99,Henriksen +1-Wire,2013-07-15 21:45:00,
2013-07-15 17:52:00,90.0,70.2,30.05,WNW,289,1.4,4.7,51,0.00,n/a,n/a,-99.99,Henriksen +1-Wire,2013-07-15 21:52:00,
2013-07-15 17:58:00,90.6,71.0,30.05,NW,306,1.0,2.7,52,0.00,n/a,n/a,-99.99,Henriksen +1-Wire,2013-07-15 21:58:00,
2013-07-15 18:04:00,90.1,70.1,30.05,WNW,294,2.2,5.2,51,0.00,n/a,n/a,-99.99,Henriksen +1-Wire,2013-07-15 22:04:00,
2013-07-15 18:10:00,90.0,70.7,30.05,West,280,1.1,5.2,52,0.00,n/a,n/a,-99.99,Henriksen +1-Wire,2013-07-15 22:10:00,
2013-07-15 18:16:00,90.3,71.8,30.05,SSE,157,0.1,2.2,54,0.00,n/a,n/a,-99.99,Henriksen +1-Wire,2013-07-15 22:16:00,
2013-07-15 18:22:00,89.8,71.6,30.05,SSW,209,0.3,0.6,54,0.00,n/a,n/a,-99.99,Henriksen +1-Wire,2013-07-15 22:22:00,
2013-07-15 18:28:00,90.0,72.0,30.05,South,179,0.3,1.6,54,0.00,n/a,n/a,-99.99,Henriksen +1-Wire,2013-07-15 22:28:00,
2013-07-15 18:33:00,89.4,71.6,30.05,WNW,291,0.6,1.6,55,0.00,n/a,n/a,-99.99,Henriksen +1-Wire,2013-07-15 22:33:00,
2013-07-15 18:40:00,88.9,70.6,30.05,West,267,0.2,2.2,54,0.00,n/a,n/a,-99.99,Henriksen +1-Wire,2013-07-15 22:40:00,
2013-07-15 18:46:00,88.6,72.1,30.05,West,275,0.0,1.3,57,0.00,n/a,n/a,-99.99,Henriksen +1-Wire,2013-07-15 22:46:00,
2013-07-15 18:51:00,88.0,73.6,30.05,WNW,286,0.0,0.3,61,0.00,n/a,n/a,-99.99,Henriksen +1-Wire,2013-07-15 22:51:00,
2013-07-15 18:58:00,87.8,75.0,30.05,WNW,297,2.6,4.5,65,0.00,n/a,n/a,-99.99,Henriksen +1-Wire,2013-07-15 22:58:00,
2013-07-15 19:04:00,86.4,72.3,30.05,ESE,104,2.0,5.8,62,0.00,n/a,n/a,-99.99,Henriksen +1-Wire,2013-07-15 23:04:00,
2013-07-15 19:10:00,86.0,72.2,30.05,ESE,105,1.4,4.5,63,0.00,n/a,n/a,-99.99,Henriksen +1-Wire,2013-07-15 23:10:00,
2013-07-15 19:15:00,85.6,72.2,30.05,East,99,1.7,3.2,63,0.00,n/a,n/a,-99.99,Henriksen +1-Wire,2013-07-15 23:15:00,
2013-07-15 19:22:00,85.3,72.0,30.06,NE,44,0.7,3.2,64,0.00,n/a,n/a,-99.99,Henriksen +1-Wire,2013-07-15 23:22:00,
2013-07-15 19:28:00,84.9,72.7,30.05,East,94,1.2,3.6,66,0.00,n/a,n/a,-99.99,Henriksen +1-Wire,2013-07-15 23:28:00,
2013-07-15 19:34:00,84.5,72.4,30.06,ESE,106,0.8,3.6,66,0.00,n/a,n/a,-99.99,Henriksen +1-Wire,2013-07-15 23:34:00,
2013-07-15 19:39:00,83.7,72.2,30.06,ENE,77,0.1,2.0,67,0.00,n/a,n/a,-99.99,Henriksen +1-Wire,2013-07-15 23:39:00,
2013-07-15 19:46:00,82.7,72.1,30.06,WNW,289,0.0,1.8,69,0.00,n/a,n/a,-99.99,Henriksen +1-Wire,2013-07-15 23:46:00,
2013-07-15 19:54:00,82.5,72.7,30.05,South,183,0.4,1.3,71,0.00,n/a,n/a,-99.99,Henriksen +1-Wire,2013-07-15 23:54:00,
2013-07-15 20:00:00,81.9,72.4,30.06,East,90,1.4,2.2,72,0.00,n/a,n/a,-99.99,Henriksen +1-Wire,2013-07-16 00:00:00,
2013-07-15 20:06:00,81.2,72.2,30.06,NW,306,1.2,2.2,73,0.00,n/a,n/a,-99.99,Henriksen +1-Wire,2013-07-16 00:06:00,
2013-07-15 20:11:00,81.1,72.3,30.05,ESE,114,1.9,2.7,74,0.00,n/a,n/a,-99.99,Henriksen +1-Wire,2013-07-16 00:11:00,
2013-07-15 20:18:00,79.9,72.6,30.06,WNW,294,1.6,3.6,78,0.00,n/a,n/a,-99.99,Henriksen +1-Wire,2013-07-16 00:18:00,
2013-07-15 20:24:00,79.4,72.4,30.06,West,274,1.0,3.6,78,0.00,n/a,n/a,-99.99,Henriksen +1-Wire,2013-07-16 00:24:00,
2013-07-15 20:30:00,79.4,72.5,30.06,ESE,114,0.8,1.9,79,0.00,n/a,n/a,-99.99,Henriksen +1-Wire,2013-07-16 00:30:00,
2013-07-15 20:36:00,79.2,72.7,30.06,ESE,113,0.0,1.6,80,0.00,n/a,n/a,-99.99,Henriksen +1-Wire,2013-07-16 00:36:00,
2013-07-15 20:42:00,78.6,72.4,30.06,SW,236,0.1,1.6,81,0.00,n/a,n/a,-99.99,Henriksen +1-Wire,2013-07-16 00:42:00,
2013-07-15 20:48:00,78.0,72.3,30.07,WNW,289,0.0,1.6,82,0.00,n/a,n/a,-99.99,Henriksen +1-Wire,2013-07-16 00:48:00,
2013-07-15 20:54:00,77.9,72.4,30.07,ENE,76,0.0,0.0,83,0.00,n/a,n/a,-99.99,Henriksen +1-Wire,2013-07-16 00:54:00,
2013-07-15 21:00:00,77.2,71.9,30.07,East,95,0.7,2.0,83,0.00,n/a,n/a,-99.99,Henriksen +1-Wire,2013-07-16 01:00:00,
2013-07-15 21:06:00,76.6,72.1,30.07,NW,304,0.3,2.2,85,0.00,n/a,n/a,-99.99,Henriksen +1-Wire,2013-07-16 01:06:00,
2013-07-15 21:12:00,76.4,72.0,30.07,ENE,62,0.7,1.9,86,0.00,n/a,n/a,-99.99,Henriksen +1-Wire,2013-07-16 01:12:00,
2013-07-15 21:18:00,76.4,71.5,30.07,East,100,0.2,1.9,84,0.00,n/a,n/a,-99.99,Henriksen +1-Wire,2013-07-16 01:18:00,
2013-07-15 21:24:00,76.1,71.6,30.07,ESE,109,0.0,1.6,85,0.00,n/a,n/a,-99.99,Henriksen +1-Wire,2013-07-16 01:24:00,
2013-07-15 21:30:00,76.0,71.6,30.08,ESE,108,0.0,0.7,86,0.00,n/a,n/a,-99.99,Henriksen +1-Wire,2013-07-16 01:30:00,
2013-07-15 21:36:00,75.6,71.4,30.07,East,94,0.0,0.7,86,0.00,n/a,n/a,-99.99,Henriksen +1-Wire,2013-07-16 01:36:00,
2013-07-15 21:42:00,75.5,71.5,30.08,ESE,105,0.0,0.0,87,0.00,n/a,n/a,-99.99,Henriksen +1-Wire,2013-07-16 01:42:00,
2013-07-15 21:50:00,75.3,71.2,30.08,ESE,122,0.0,0.0,87,0.00,n/a,n/a,-99.99,Henriksen +1-Wire,2013-07-16 01:50:00,
2013-07-15 21:56:00,75.0,71.0,30.08,East,80,0.0,0.0,87,0.00,n/a,n/a,-99.99,Henriksen +1-Wire,2013-07-16 01:56:00,
2013-07-15 22:02:00,74.6,71.3,30.08,ENE,71,0.0,0.0,89,0.00,n/a,n/a,-99.99,Henriksen +1-Wire,2013-07-16 02:02:00,
2013-07-15 22:08:00,74.0,70.9,30.08,NNE,23,0.0,0.0,90,0.00,n/a,n/a,-99.99,Henriksen +1-Wire,2013-07-16 02:08:00,
2013-07-15 22:14:00,73.6,70.6,30.08,ENE,69,0.0,0.0,90,0.00,n/a,n/a,-99.99,Henriksen +1-Wire,2013-07-16 02:14:00,
2013-07-15 22:20:00,73.7,70.6,30.08,East,80,0.0,0.0,90,0.00,n/a,n/a,-99.99,Henriksen +1-Wire,2013-07-16 02:20:00,
2013-07-15 22:26:00,73.6,70.6,30.08,ENE,70,0.0,0.0,90,0.00,n/a,n/a,-99.99,Henriksen +1-Wire,2013-07-16 02:26:00,
2013-07-15 22:32:00,73.4,70.5,30.08,ENE,76,0.0,0.0,90,0.00,n/a,n/a,-99.99,Henriksen +1-Wire,2013-07-16 02:32:00,
2013-07-15 22:38:00,73.0,70.4,30.08,East,93,0.0,0.0,91,0.00,n/a,n/a,-99.99,Henriksen +1-Wire,2013-07-16 02:38:00,
2013-07-15 22:44:00,73.1,70.3,30.08,WNW,300,0.0,0.0,90,0.00,n/a,n/a,-99.99,Henriksen +1-Wire,2013-07-16 02:44:00,
2013-07-15 22:50:00,73.2,70.2,30.08,NNW,335,0.0,0.0,90,0.00,n/a,n/a,-99.99,Henriksen +1-Wire,2013-07-16 02:50:00,
2013-07-15 22:56:00,73.0,70.0,30.08,North,2,0.0,0.0,90,0.00,n/a,n/a,-99.99,Henriksen +1-Wire,2013-07-16 02:56:00,
2013-07-15 23:02:00,72.8,70.0,30.08,North,6,0.0,0.0,90,0.00,n/a,n/a,-99.99,Henriksen +1-Wire,2013-07-16 03:02:00,
2013-07-15 23:08:00,72.6,70.1,30.08,North,1,0.0,0.0,91,0.00,n/a,n/a,-99.99,Henriksen +1-Wire,2013-07-16 03:08:00,
2013-07-15 23:14:00,72.6,70.0,30.08,North,3,0.0,0.0,91,0.00,n/a,n/a,-99.99,Henriksen +1-Wire,2013-07-16 03:14:00,
2013-07-15 23:20:00,72.3,69.6,30.08,North,1,0.0,0.0,91,0.00,n/a,n/a,-99.99,Henriksen +1-Wire,2013-07-16 03:20:00,
2013-07-15 23:28:00,72.2,69.6,30.08,North,1,0.0,0.0,91,0.00,n/a,n/a,-99.99,Henriksen +1-Wire,2013-07-16 03:28:00,
2013-07-15 23:34:00,72.0,69.6,30.08,NNW,346,0.0,0.0,92,0.00,n/a,n/a,-99.99,Henriksen +1-Wire,2013-07-16 03:34:00,
2013-07-15 23:40:00,71.7,69.5,30.09,NE,43,0.0,0.0,92,0.00,n/a,n/a,-99.99,Henriksen +1-Wire,2013-07-16 03:40:00,
2013-07-15 23:46:00,71.8,69.5,30.08,ENE,66,0.0,0.0,92,0.00,n/a,n/a,-99.99,Henriksen +1-Wire,2013-07-16 03:46:00,
2013-07-15 23:52:00,71.7,69.5,30.09,ENE,64,0.0,0.0,92,0.00,n/a,n/a,-99.99,Henriksen +1-Wire,2013-07-16 03:52:00,
2013-07-15 23:58:00,71.7,69.8,30.09,ENE,66,0.0,0.0,93,0.00,n/a,n/a,-99.99,Henriksen +1-Wire,2013-07-16 03:58:00,